Weather in Kiryat Gat

Israel     31°36′39″N   34°46′21″E
temp.,
°C
wind,
m/s
gust,
m/s
humid.,
%
clouds,
%
prec.,
mm/h
press.,
hPa
HPBL,
m
27 february, sat
sat2723:00+13n23800 0.0 101933
02:00+12nne23760 0.0 101723
05:00+10nne11750 0.0 101723
08:00+15sw11550 0.0 101753
11:00+19wnw21440 0.0 1017617
14:00+20nnw54460 0.0 1015945
17:00+16n79720 0.0 1015419
20:00+14n510780 0.0 1016282
28 february, sun
sun2823:00+12nne36800 0.0 1016126
02:00+12nne34830 0.0 101575
05:00+11n33870 0.0 101647
08:00+14nnw24760 0.0 1017341
11:00+17nw44544 0.0 10171173
14:00+17nw65584 0.0 10161228
17:00+15nw557050 0.0 1017800
20:00+12wnw237732 0.1 101962
1 march, mon
mon123:00+12sse127916 0.0 101925
02:00+13sw227350 0.0 101964
05:00+13sw3575100 0.1 1019166
08:00+14sw557087 0.3 1020446
11:00+15wsw466672 0.3 1020968
14:00+16wnw555873 0.6 10181206
17:00+14wnw447237 0.1 1018626
20:00+12wnw018820 0.1 102022
2 march, tue
tue223:00+11se22850 0.0 102022
02:00+11s22840 0.0 101922
05:00+11s347835 0.0 101935
08:00+13ssw467752 0.1 1020359
11:00+16sw666229 0.1 10201141
14:00+17w775321 0.1 10181268
17:00+14w46660 0.0 1018560
20:00+12sse11780 0.0 101922
3 march, wed
wed323:00+11sw33770 0.0 101930
02:00+11sw34892 0.4 101876
05:00+9ssw598412 0.3 1018229
08:00+11sw67767 0.3 1019603
11:00+14sw66530 0.0 10181325
14:00+15sw56410 0.0 10171849
17:00+15sw34515 0.0 1017780
20:00+13ese116753 0.3 101867